Location: Isola Pescaroli
(45.0500°N, 10.1667°E)
Time: 13:33:10
(UTC+00:00)

Cosmos 2237 - Pass Details

Date: 03 March 2021
Orbit: 845 x 856 km, 70.8° (Epoch: 22 April)

Event Time Altitude Azimuth Distance (km) Brightness Sun altitude
Rises 18:05:59 0° 194° (SSW) 3,405 7.5 -10.8°
Reaches altitude 10° 18:08:27 10° 192° (SSW) 2,475 6.8 -11.2°
Maximum altitude 18:14:04 65° 111° (ESE) 940 4.2 -12.2°
Drops below altitude 10° 18:19:44 10° 31° (NNE) 2,497 6.4 -13.2°
Sets 18:22:13 0° 29° (NNE) 3,438 7.1 -13.6°
